Location: Newark
(25.7507°S, 31.4676°E)
Time: 05:32:00
(UTC+00:00)

N. Korean satellite - Visible Passes

Search period start: 27 January 2020 00:00
Search period end: 06 February 2020 00:00
Orbit: 454 x 507 km, 97.2° (Epoch: 26 January)

Date Brightness Start Highest point End Pass type
(mag) Time Alt. Az. Time Alt. Az. Time Alt. Az.
27 Jan 10.3 02:06:41 10° E 02:07:54 11° ESE 02:09:06 10° SE visible
29 Jan 8.1 02:46:26 10° NNE 02:49:59 44° ESE 02:53:34 10° S visible
30 Jan 9.7 02:21:55 10° ENE 02:24:38 19° ESE 02:27:21 10° SSE visible
02 Feb 8.7 02:38:01 10° NE 02:41:23 33° ESE 02:44:46 10° S visible
03 Feb 10.0 02:13:54 10° ENE 02:16:03 15° ESE 02:18:13 10° SE visible
05 Feb 7.3 02:54:30 10° NNE 02:58:10 60° ESE 03:01:52 10° S visible
